CAPE
0 0 0 0 0 0 0 0 0 0 0 0 0 0 0 0 0 0 0 0 0 0 0 0 0 0 0 0 0 0 0 0 0 0 0 0 0 0 0 1 1 2 3 1
0 0 0 0 0 0 0 0 0 0 0 0 0 0 0 0 0 0 0 0 0 0 0 0 0 0 0 0 0 0 0 0 0 0 0 0 0 0 0 0 0 0 4 3
0 0 0 0 0 0 0 0 0 0 0 0 0 0 0 0 0 0 0 0 0 0 0 0 0 0 0 0 0 0 0 0 0 0 0 0 0 0 0 0 0 0 1 2
0 0 0 0 0 0 0 0 0 0 0 0 0 0 0 0 0 0 0 0 0 0 0 0 0 0 0 0 0 0 0 0 0 0 0 0 0 0 0 0 0 0 0 0
0 0 0 0 0 0 0 0 0 0 0 0 0 0 0 0 0 0 0 0 0 0 0 0 0 0 0 0 0 0 0 0 0 0 0 0 0 0 0 0 0 0 0 0
0 0 0 0 0 0 0 0 0 0 0 0 0 0 0 0 0 0 0 0 0 0 0 0 0 0 0 0 0 0 0 0 0 0 0 0 0 0 0 0 0 0 0 0
0 0 0 0 0 0 0 0 0 0 0 0 0 0 0 0 0 0 0 0 0 0 0 0 0 0 0 0 0 0 0 0 0 0 0 0 0 0 0 0 0 0 0 0
0 0 0 0 0 0 0 0 0 0 0 0 0 0 0 0 0 0 0 0 0 0 0 0 0 0 0 0 0 0 0 0 0 0 0 0 0 0 0 0 0 0 0 0
0 0 0 0 0 0 0 0 0 0 0 0 0 0 0 0 0 0 0 0 0 0 0 0 0 0 0 0 0 0 0 0 0 0 0 0 0 0 0 0 0 0 0 0
0 0 0 0 0 0 0 0 0 0 0 0 0 0 0 0 0 0 0 0 0 0 0 0 0 0 0 0 0 0 0 0 0 0 0 0 0 0 0 0 0 0 0 0
0 0 0 0 3 1 0 0 0 0 0 0 0 0 0 0 0 0 0 0 0 0 0 0 0 0 0 0 0 0 0 0 0 0 0 0 0 0 0 0 0 0 0 0
0 0 0 0 1 0 0 0 0 0 0 0 0 0 0 0 0 0 0 0 0 0 0 0 0 0 0 0 0 0 0 0 0 0 0 0 0 0 0 0 0 0 0 0
0 0 0 0 0 1 0 0 0 0 0 0 0 0 0 0 0 0 0 0 0 0 0 0 0 0 0 0 0 0 0 0 0 0 0 0 0 0 0 0 0 0 0 0
0 0 0 0 0 0 0 0 0 0 0 0 0 0 0 0 0 0 0 0 0 0 0 0 0 0 0 0 0 0 0 0 0 0 0 0 0 0 0 0 0 0 0 0
0 0 0 0 0 0 0 0 0 0 0 0 0 0 0 0 0 0 0 0 0 0 0 0 0 0 0 0 0 0 0 0 0 0 0 0 0 0 0 0 0 0 0 0
1 0 0 0 0 0 0 0 0 0 0 0 1 0 0 0 0 0 0 0 0 0 0 0 0 0 0 0 0 0 0 0 0 0 0 0 0 0 0 0 0 0 0 0
0 0 0 0 0 0 0 0 0 0 0 0 0 0 0 0 0 0 0 0 0 0 0 0 0 0 0 0 0 0 0 0 0 0 0 0 0 0 0 0 0 0 0 0
0 0 0 0 0 0 0 0 0 0 0 0 0 0 1 1 0 0 0 0 0 0 0 0 0 0 0 0 0 0 0 0 0 0 1 1 0 0 0 0 0 0 0 0
0 0 0 0 0 0 0 0 0 0 0 0 0 0 0 0 0 0 0 0 0 0 0 0 0 0 0 0 0 0 0 0 0 0 0 2 1 0 0 0 0 0 0 0
0 0 0 0 0 0 0 0 0 0 0 0 0 0 0 0 0 0 0 0 1 1 1 0 0 0 0 0 0 0 0 0 0 1 1 2 1 0 0 0 0 0 0 0
0 0 0 0 0 0 0 0 0 0 0 0 0 0 0 0 0 0 0 0 1 1 2 1 1 0 0 0 1 0 0 0 1 1 2 1 1 1 1 1 0 0 0 0
0 0 0 0 0 0 0 0 0 0 0 0 0 0 0 0 0 0 0 0 0 1 1 0 0 0 1 0 0 0 0 0 0 2 1 2 1 1 1 0 0 0 0 0
0 0 0 0 0 0 0 0 0 0 0 0 0 0 0 0 0 0 0 0 0 1 1 0 1 2 1 0 0 0 0 0 0 1 1 1 1 0 0 0 0 0 0 0
0 0 0 0 0 0 0 0 0 0 0 0 0 0 0 0 0 0 0 0 0 1 0 0 1 0 0 0 0 0 0 0 0 1 1 1 1 2 0 0 0 0 0 0
0 0 0 0 0 0 0 0 0 0 0 0 0 0 0 0 0 0 0 0 1 0 0 1 1 1 0 0 0 0 0 1 1 1 1 0 0 0 0 0 0 0 0 0
0 0 0 0 0 0 0 0 0 0 0 0 0 0 0 0 0 0 0 1 0 0 0 0 1 1 0 0 0 1 1 1 0 0 0 0 0 0 0 0 0 0 0 0
0 0 0 0 0 0 0 0 0 0 0 0 0 0 0 0 0 0 1 1 0 0 0 0 0 0 0 0 0 0 1 1 0 0 0 0 0 0 0 0 0 0 0 0
CIN
-0 -0 -0 -0 -0 -0 -0 -0 -0 -0 -0 -0 -0 -0 -0 -0 -0 -0 -0 -0 -0 -0 -0 -0 -0 -0 -0 -0 -0 -0 -0 -0 -0 -0 -0 -0 -0 -0 -0 -0 -0 -0 -0 -0
-0 -0 -0 -0 -0 -0 -0 -0 -0 -0 -0 -0 -0 -0 -0 -0 -0 -0 -0 -0 -0 -0 -0 -0 -0 -0 -0 -0 -0 -0 -0 -0 -0 -0 -0 -0 -0 -0 -0 -0 -0 -0 -0 -0
-0 -0 -0 -0 -0 -0 -0 -0 -0 -0 -0 -0 -0 -0 -0 -0 -0 -0 -0 -0 -0 -0 -0 -0 -0 -0 -0 -0 -0 -0 -0 -0 -0 -0 -0 -0 -0 -0 -0 -0 -0 -0 -0 -0
-0 -0 -0 -0 -0 -0 -0 -0 -0 -0 -0 -0 -0 -0 -0 -0 -0 -0 -0 -0 -0 -0 -0 -0 -0 -0 -0 -0 -0 -0 -0 -0 -0 -0 -0 -0 -0 -0 -0 -0 -0 -0 -0 -0
-0 -0 -0 -0 -0 -0 -0 -0 -0 -0 -0 -0 -0 -0 -0 -0 -0 -0 -0 -0 -0 -0 -0 -0 -0 -0 -0 -0 -0 -0 -0 -0 -0 -0 -0 -0 -0 -0 -0 -0 -0 -0 -0 -0
-0 -0 -0 -0 -0 -0 -0 -0 -0 -0 -0 -0 -0 -0 -0 -0 -0 -0 -0 -0 -0 -0 -0 -0 -0 -0 -0 -0 -0 -0 -0 -0 -0 -0 -0 -0 -0 -0 -0 -0 -0 -0 -0 -0
-0 -0 -0 -0 -0 -0 -0 -0 -0 -0 -0 -0 -0 -0 -0 -0 -0 -0 -0 -0 -0 -0 -0 -0 -0 -0 -0 -0 -0 -0 -0 -0 -0 -0 -0 -0 -0 -0 -0 -0 -0 -0 -0 -0
-0 -0 -0 -0 -0 -0 -0 -0 -0 -0 -0 -0 -0 -0 -0 -0 -0 -0 -0 -0 -0 -0 -0 -0 -0 -0 -0 -0 -0 -0 -0 -0 -0 -0 -0 -0 -0 -0 -0 -0 -0 -0 -0 -0
-0 -0 -0 -0 -0 -0 -0 -0 -0 -0 -0 -0 -0 -0 -0 -0 -0 -0 -0 -0 -0 -0 -0 -0 -0 -0 -0 -0 -0 -0 -0 -0 -0 -0 -0 -0 -0 -0 -0 -0 -0 -0 -0 -0
-0 -0 -0 -0 -0 -0 -0 -0 -0 -0 -0 -0 -0 -0 -0 -0 -0 -0 -0 -0 -0 -0 -0 -0 -0 -0 -0 -0 -0 -0 -0 -0 -0 -0 -0 -0 -0 -0 -0 -0 -0 -0 -0 -0
-0 -0 -0 -0 -3 -22 -0 -0 -0 -0 -0 -0 -0 -0 -0 -0 -0 -0 -0 -0 -0 -0 -0 -0 -0 -0 -0 -0 -0 -0 -0 -0 -0 -0 -0 -0 -0 -0 -0 -0 -0 -0 -0 -0
-0 -0 -0 -0 -2 -2 -0 -0 -0 -0 -0 -0 -0 -0 -0 -0 -0 -0 -0 -0 -0 -0 -0 -0 -0 -0 -0 -0 -0 -0 -0 -0 -0 -0 -0 -0 -0 -0 -0 -0 -0 -0 -0 -0
-0 -0 -0 -0 -0 -11 -6 -0 -0 -0 -0 -0 -0 -0 -0 -0 -0 -0 -0 -0 -0 -0 -0 -0 -0 -0 -0 -0 -0 -0 -0 -0 -0 -0 -0 -0 -0 -0 -0 -0 -0 -0 -0 -0
-0 -0 -0 -0 -0 -0 -0 -0 -0 -0 -0 -0 -0 -0 -0 -0 -0 -0 -0 -0 -0 -0 -0 -0 -0 -0 -0 -0 -0 -0 -0 -0 -0 -0 -0 -0 -0 -0 -0 -0 -0 -0 -0 -0
-0 -0 -0 -0 -0 -0 -0 -0 -0 -1 -0 -0 -0 -0 -0 -0 -0 -0 -0 -0 -0 -0 -0 -0 -0 -0 -0 -0 -0 -0 -0 -0 -0 -0 -0 -0 -0 -0 -0 -0 -0 -0 -0 -0
-0 -0 -0 -0 -0 -0 -0 -0 -0 -0 -0 -0 -0 -0 -0 -0 -0 -0 -0 -0 -0 -0 -0 -0 -0 -0 -0 -0 -0 -0 -0 -0 -0 -0 -0 -0 -0 -0 -0 -0 -0 -0 -0 -0
-0 -0 -0 -0 -0 -0 -0 -0 -0 -0 -0 -0 -0 -0 -0 -0 -0 -0 -0 -0 -0 -0 -0 -0 -0 -0 -0 -0 -0 -0 -0 -0 -0 -0 -0 -0 -0 -0 -0 -0 -0 -0 -0 -0
-0 -0 -0 -0 -0 -0 -0 -0 -0 -0 -0 -0 -0 -0 -0 -0 -0 -0 -0 -0 -0 -0 -0 -0 -0 -0 -0 -0 -0 -0 -0 -0 -0 -0 -0 -0 -0 -0 -0 -0 -0 -0 -0 -0
-0 -0 -0 -0 -0 -0 -0 -0 -0 -0 -0 -0 -0 -0 -0 -0 -0 -0 -0 -0 -0 -0 -0 -0 -0 -0 -0 -0 -0 -0 -0 -0 -0 -0 -0 -0 -0 -0 -0 -0 -0 -0 -0 -0
-0 -0 -0 -0 -0 -0 -0 -0 -0 -0 -0 -0 -0 -0 -0 -0 -0 -0 -0 -0 -0 -0 -0 -0 -0 -0 -0 -0 -0 -0 -0 -0 -0 -0 -0 -0 -0 -0 -0 -0 -0 -0 -0 -0
-0 -0 -0 -0 -0 -0 -0 -0 -0 -0 -0 -0 -0 -0 -0 -0 -0 -0 -0 -0 -0 -0 -0 -0 -0 -0 -0 -0 -0 -0 -0 -0 -0 -0 -0 -0 -0 -0 -0 -0 -0 -0 -0 -0
-0 -0 -0 -0 -0 -0 -0 -0 -0 -0 -0 -0 -0 -0 -0 -0 -0 -0 -0 -0 -0 -0 -0 -0 -0 -0 -0 -0 -0 -0 -0 -0 -0 -0 -0 -0 -0 -0 -0 -0 -0 -0 -0 -0
-0 -0 -0 -0 -0 -0 -0 -0 -0 -0 -0 -0 -0 -0 -0 -0 -0 -0 -0 -0 -0 -0 -0 -0 -0 -0 -0 -0 -0 -0 -0 -0 -0 -0 -0 -0 -0 -0 -0 -0 -0 -0 -0 -0
-0 -0 -0 -0 -0 -0 -0 -0 -0 -0 -0 -0 -0 -0 -0 -0 -0 -0 -0 -0 -0 -0 -0 -0 -0 -0 -0 -0 -0 -0 -0 -0 -0 -0 -0 -0 -0 -0 -0 -0 -0 -0 -0 -0
-0 -0 -0 -0 -0 -0 -0 -0 -0 -0 -0 -0 -0 -0 -0 -0 -0 -0 -0 -0 -0 -0 -0 -0 -0 -0 -0 -0 -0 -0 -0 -0 -0 -0 -0 -0 -0 -0 -0 -0 -0 -0 -0 -0
-0 -0 -0 -0 -0 -0 -0 -0 -0 -0 -0 -0 -0 -0 -0 -0 -0 -0 -0 -0 -0 -0 -0 -0 -0 -0 -0 -0 -0 -0 -0 -0 -0 -0 -0 -0 -0 -0 -0 -0 -0 -0 -0 -0
-0 -0 -0 -0 -0 -0 -0 -0 -0 -0 -0 -0 -0 -0 -0 -0 -0 -0 -0 -0 -0 -0 -0 -0 -0 -0 -0 -0 -0 -0 -0 -0 -0 -0 -0 -0 -0 -0 -0 -0 -0 -0 -0 -0
Wind_Speed
25 30 31 25 25 21 18 14 20 26 21 16 16 16 12 19 31 36 35 35 32 28 28 19 16 12 5 5 4 8 18 25 27 26 25 25 26 28 30 31 31 31 29 28
37 34 30 30 28 22 17 17 19 18 18 17 12 20 22 26 29 36 38 36 36 36 35 31 28 25 16 7 5 3 10 18 20 21 22 22 21 18 24 29 29 31 29 28
37 35 43 36 22 21 21 20 20 22 21 22 25 27 30 33 34 37 40 38 38 38 37 35 33 28 22 16 15 13 14 17 18 19 20 20 18 15 18 24 28 28 28 28
39 38 35 27 31 26 25 24 18 26 24 24 28 31 31 35 28 36 38 38 39 39 40 38 34 32 26 21 17 16 17 18 18 18 18 17 17 19 20 20 23 25 26 26
35 35 40 42 29 27 30 36 27 21 22 31 33 32 34 38 29 37 41 43 42 40 39 39 37 34 28 24 20 19 18 18 18 17 17 17 16 17 17 18 20 22 22 24
33 39 39 29 27 29 32 47 21 22 32 36 37 47 45 39 39 41 42 45 43 42 41 37 36 34 30 26 22 21 19 17 16 16 16 15 15 15 16 16 18 19 21 22
36 40 40 33 34 25 36 35 29 33 40 41 40 40 46 47 47 46 50 51 48 45 45 42 38 31 32 32 26 23 20 20 16 14 15 15 13 14 13 14 15 17 19 20
34 37 45 27 23 34 34 40 48 49 47 47 50 52 53 55 55 53 52 52 50 47 48 44 38 35 32 28 34 27 23 20 18 14 12 13 13 12 12 13 13 14 15 17
37 44 36 29 44 44 45 50 47 48 49 52 55 57 58 56 55 54 51 50 48 47 47 47 43 38 37 35 26 33 27 24 19 17 13 11 11 10 11 12 14 14 15 15
41 41 43 43 50 53 48 44 47 50 53 55 59 57 57 55 55 54 52 50 47 47 48 49 47 42 39 37 30 25 32 28 24 19 16 14 11 10 9 10 12 14 15 15
48 45 50 50 42 39 51 52 57 55 53 52 52 54 52 55 54 52 51 47 44 46 45 46 47 46 42 37 30 29 30 31 27 24 19 16 15 11 9 10 9 12 14 14
58 52 51 52 51 50 54 53 48 51 55 52 49 51 50 50 49 49 48 46 47 46 46 46 46 45 44 38 33 31 27 32 31 27 25 21 17 18 18 18 13 13 11 10
51 48 49 53 51 48 48 47 49 47 47 48 46 45 47 47 46 48 46 46 46 47 48 48 45 45 41 38 34 31 29 25 31 31 26 24 20 17 16 18 17 15 12 11
50 48 49 45 46 45 44 44 43 43 43 43 43 43 45 48 47 45 46 47 47 48 49 48 46 46 41 37 35 35 30 29 24 29 30 26 24 21 18 16 15 16 14 11
38 39 40 39 39 38 37 39 42 43 42 40 41 44 46 49 48 47 48 47 46 45 47 47 46 46 39 37 35 35 33 32 29 24 29 28 24 23 20 19 17 16 14 13
35 36 38 38 36 37 40 40 41 41 41 40 39 41 44 46 47 46 45 43 45 45 44 44 44 42 36 35 35 34 33 32 26 25 24 30 26 24 23 21 19 17 16 15
32 35 34 35 37 39 37 38 38 39 40 38 40 39 46 46 48 45 45 43 43 42 40 38 40 37 35 33 34 35 32 29 26 23 22 25 26 24 22 21 20 18 17 15
27 30 32 35 37 39 39 38 37 40 40 43 41 41 44 45 47 47 45 44 42 38 35 34 35 35 35 32 29 30 29 26 24 22 21 21 22 21 22 21 20 18 17 15
27 32 35 35 36 37 39 40 41 41 42 43 42 42 43 43 44 46 43 39 35 36 35 34 35 34 33 31 27 24 23 21 20 19 19 20 19 18 18 18 18 17 15 14
36 37 38 41 45 43 44 43 42 43 43 44 43 44 44 44 43 42 41 38 35 34 35 34 32 31 30 28 24 22 18 16 16 17 15 17 16 14 14 16 16 15 14 14
41 41 43 45 47 47 46 45 45 45 46 45 45 46 44 43 40 36 37 38 37 36 35 33 32 29 27 24 17 19 15 13 12 13 10 10 12 13 12 12 11 11 11 11
44 45 47 45 46 49 50 47 47 48 48 47 47 47 45 43 40 36 27 35 36 37 36 34 32 29 25 20 17 14 11 8 8 8 8 7 6 6 7 8 8 8 8 8
46 47 46 48 47 46 49 51 50 49 50 49 48 48 44 43 40 36 37 33 35 36 35 32 30 27 22 21 17 14 10 8 7 6 5 5 5 4 5 5 6 6 6 6
44 44 44 44 44 45 50 54 52 51 50 48 45 45 42 42 40 36 33 26 29 33 32 29 25 23 21 17 14 12 10 8 6 5 4 2 2 3 3 3 3 4 5 6
39 37 38 41 44 44 44 45 47 47 45 44 43 42 39 38 38 36 33 30 28 26 26 25 23 20 17 14 11 10 8 7 6 6 6 5 5 5 6 6 6 6 7 8
35 32 34 34 33 36 38 42 46 45 43 43 41 39 38 37 35 33 31 30 28 23 21 21 19 15 12 10 9 10 11 12 12 11 11 10 10 9 8 8 8 8 8 9
28 29 31 30 30 29 29 30 45 45 42 41 41 38 37 35 33 30 29 28 25 22 20 17 14 12 10 9 10 12 12 13 12 12 11 11 10 10 9 9 9 10 11 11
Wind_Direction
310 315 316 310 315 312 302 295 324 338 334 320 332 344 352 356 343 323 323 329 342 347 339 347 351 351 324 252 245 313 316 313 317 332 344 351 353 351 348 345 340 331 330 332
316 318 319 319 315 309 300 299 288 297 304 322 334 350 352 349 345 338 328 328 329 330 327 330 331 334 344 343 336 335 326 323 329 338 346 354 4 16 3 337 338 342 343 350
315 320 317 318 328 329 324 321 320 322 328 337 339 340 340 338 331 333 330 330 326 326 327 327 324 326 328 328 330 328 326 325 329 336 343 351 1 16 16 357 336 342 341 344
312 318 314 322 324 324 318 319 309 315 319 327 328 328 330 333 332 331 334 336 329 322 320 320 323 321 320 320 318 319 319 321 325 330 337 347 353 354 0 6 359 349 345 345
310 311 310 311 322 326 321 316 318 313 318 321 323 325 323 327 326 324 326 325 323 324 324 317 315 318 317 313 312 310 313 316 320 325 330 338 345 351 359 8 9 3 4 353
307 305 308 318 327 326 322 310 326 327 323 321 320 315 316 320 320 320 322 323 319 319 320 321 317 313 314 310 305 304 305 309 314 318 322 329 336 344 352 2 11 21 14 12
295 298 302 311 316 324 313 315 325 321 319 318 317 316 315 315 315 315 313 313 311 311 311 313 313 317 310 303 300 298 301 302 306 312 315 320 328 334 344 354 360 5 10 12
300 298 302 320 320 314 316 312 313 313 314 314 312 311 311 311 310 312 311 310 307 306 304 306 310 308 310 307 295 294 293 295 298 302 309 312 315 322 330 334 344 352 359 0
295 295 304 306 307 308 309 309 311 311 311 311 311 311 310 310 310 310 310 310 308 305 301 300 302 303 300 303 304 287 285 285 289 293 298 303 305 309 315 319 321 329 337 344
300 302 299 302 306 305 307 309 309 310 310 310 308 309 310 310 310 310 310 309 308 304 301 298 296 296 296 294 298 292 280 279 280 282 287 292 296 299 304 309 313 314 319 327
298 302 302 304 306 311 308 308 308 309 311 312 312 310 311 311 311 311 311 311 309 306 303 299 293 290 291 293 291 289 279 275 274 275 277 281 286 287 290 301 308 310 312 316
297 303 301 302 306 309 308 308 310 311 310 312 314 312 313 312 313 313 312 311 309 305 301 298 294 290 288 288 288 286 280 270 269 269 270 273 276 284 287 291 297 305 312 318
299 303 303 303 307 309 308 310 311 313 314 314 317 318 317 316 316 315 314 312 308 303 297 293 294 287 289 288 284 284 281 275 266 264 264 264 267 271 277 285 290 296 302 308
302 305 305 309 309 313 314 315 316 315 315 316 319 322 322 320 317 317 314 312 308 302 294 291 290 287 290 288 285 279 280 277 269 261 260 261 262 264 268 272 278 286 294 301
309 311 310 314 317 317 321 322 320 320 322 320 321 323 325 324 320 317 315 314 310 305 296 290 288 286 290 286 286 282 279 276 271 263 258 258 258 260 262 267 273 279 287 293
319 318 316 316 317 319 321 321 322 323 324 326 326 326 330 329 325 322 321 320 314 305 299 294 289 288 291 287 285 283 281 278 271 264 258 255 255 256 258 262 265 270 278 284
328 326 325 325 323 321 320 322 323 323 324 324 327 326 327 328 328 326 324 321 316 310 306 301 294 294 293 291 285 281 282 280 270 263 258 252 251 252 254 257 262 267 274 278
334 331 328 324 322 323 320 322 324 320 321 314 317 321 324 330 329 329 324 317 313 311 313 310 305 299 293 293 290 282 282 280 267 263 259 250 247 248 251 255 260 265 273 277
329 326 324 325 325 319 318 314 310 310 310 309 314 320 321 326 332 325 320 317 310 315 313 300 299 301 301 296 292 291 289 278 269 263 259 252 247 246 248 253 258 265 271 275
322 321 321 314 299 305 300 305 306 311 311 314 313 314 309 317 321 314 315 311 316 331 313 314 313 305 298 297 295 290 290 282 271 262 255 248 245 242 248 254 257 264 271 279
314 315 313 312 304 298 299 300 304 306 307 312 313 307 298 299 298 296 302 306 319 317 314 312 315 310 303 297 309 293 295 285 275 263 252 242 242 247 248 252 257 265 274 284
313 311 308 308 307 301 296 300 303 305 306 309 308 304 297 295 294 290 281 297 306 307 312 310 312 308 304 310 309 312 315 314 292 275 260 252 238 238 248 255 265 275 287 296
314 311 309 305 304 304 301 298 299 302 301 301 300 297 287 289 288 286 291 313 307 312 312 310 306 312 313 301 303 304 312 314 298 288 280 266 255 256 268 275 283 297 307 316
317 313 310 310 309 307 303 298 299 299 298 298 298 294 282 286 288 287 288 275 290 311 322 323 331 317 309 308 311 312 309 308 311 309 310 315 317 330 352 17 15 10 5 355
317 316 315 312 310 310 310 307 301 297 297 292 288 284 277 284 287 291 287 284 289 297 330 325 320 315 323 328 337 355 1 11 29 41 39 41 32 38 46 52 49 37 16 359
317 316 315 314 312 310 311 309 299 295 291 285 281 278 276 283 289 290 293 296 303 289 290 304 312 302 293 307 347 21 36 46 52 53 56 58 63 62 55 46 37 22 11 8
319 320 319 319 317 315 315 316 292 289 289 282 276 273 273 280 284 286 290 290 293 294 291 293 290 290 307 344 12 23 31 38 47 52 53 56 53 53 47 40 39 42 42 34